When you browse on this site, cookies collect data to enhance your experience and personalize the content and advertising you see.
Visit our Privacy Policy to learn more. By continuing to use the site, you agree to this use of cookies and data.
EN

Hourly Weather Santiago

Today, 6 August, Thursday

Time Temperature Precipitation Wind Pressure Humidity
00:00 +24°C° 0 mm 2 mps 749 mmHg 94%
01:00 +24°C° 0 mm 1 mps 748 mmHg 94%
02:00 +24°C° 0 mm 1 mps 748 mmHg 94%
03:00 +24°C° 0 mm 1 mps 748 mmHg 94%
04:00 +24°C° 0 mm 1 mps 747 mmHg 94%
05:00 +24°C° 0.2 mm 1 mps 748 mmHg 93%
06:00 +24°C° 0.2 mm 1 mps 748 mmHg 93%
07:00 +25°C° 0.2 mm 1 mps 748 mmHg 92%
08:00 +26°C° 0 mm 1 mps 748 mmHg 86%
09:00 +27°C° 0 mm 2 mps 749 mmHg 81%
10:00 +29°C° 0 mm 2 mps 749 mmHg 75%
11:00 +30°C° 0 mm 2 mps 749 mmHg 73%
12:00 +30°C° 0 mm 2 mps 749 mmHg 71%
13:00 +31°C° 0 mm 2 mps 748 mmHg 68%
14:00 +30°C° 1.3 mm 2 mps 748 mmHg 73%
15:00 +30°C° 1.3 mm 2 mps 747 mmHg 77%
16:00 +29°C° 1.3 mm 2 mps 747 mmHg 81%
17:00 +28°C° 1.8 mm 2 mps 747 mmHg 84%
18:00 +28°C° 1.8 mm 1 mps 747 mmHg 87%
19:00 +27°C° 1.8 mm 1 mps 748 mmHg 90%
20:00 +27°C° 0.2 mm 1 mps 748 mmHg 90%
21:00 +26°C° 0.2 mm 1 mps 748 mmHg 91%
22:00 +26°C° 0.2 mm 2 mps 749 mmHg 91%
23:00 +26°C° 0 mm 1 mps 749 mmHg 92%

Tomorrow, 7 August, Friday

Time Temperature Precipitation Wind Pressure Humidity
00:00 +26°C° 0 mm 1 mps 749 mmHg 92%
01:00 +24°C° 0 mm 0 mps 748 mmHg 93%
02:00 +24°C° 0.1 mm 0 mps 748 mmHg 93%
03:00 +23°C° 0.1 mm 0 mps 748 mmHg 93%
04:00 +23°C° 0.1 mm 0 mps 747 mmHg 93%
05:00 +24°C° 0.1 mm 0 mps 748 mmHg 92%
06:00 +24°C° 0.1 mm 0 mps 748 mmHg 91%
07:00 +24°C° 0.1 mm 0 mps 748 mmHg 90%
08:00 +26°C° 0.1 mm 0 mps 749 mmHg 84%
09:00 +29°C° 0.1 mm 1 mps 749 mmHg 79%
10:00 +30°C° 0.1 mm 1 mps 749 mmHg 73%
11:00 +31°C° 1 mm 1 mps 749 mmHg 71%
12:00 +31°C° 1 mm 1 mps 749 mmHg 70%
13:00 +32°C° 1 mm 1 mps 748 mmHg 68%
14:00 +31°C° 2.4 mm 2 mps 748 mmHg 73%
15:00 +30°C° 2.4 mm 2 mps 747 mmHg 79%
16:00 +29°C° 2.4 mm 2 mps 747 mmHg 84%
17:00 +28°C° 2.1 mm 2 mps 747 mmHg 86%
18:00 +28°C° 2.1 mm 1 mps 748 mmHg 88%
19:00 +27°C° 2.1 mm 1 mps 748 mmHg 90%
20:00 +25°C° 0.2 mm 0 mps 749 mmHg 90%
21:00 +25°C° 0.2 mm 0 mps 749 mmHg 90%
22:00 +24°C° 0.2 mm 0 mps 750 mmHg 90%
23:00 +24°C° 0 mm 0 mps 749 mmHg 90%

Day after tomorrow, 8 August, Saturday

Time Temperature Precipitation Wind Pressure Humidity
00:00 +24°C° 0 mm 0 mps 749 mmHg 91%
01:00 +24°C° 0 mm 0 mps 749 mmHg 91%
02:00 +24°C° 0 mm 0 mps 749 mmHg 91%
03:00 +23°C° 0 mm 0 mps 748 mmHg 92%
04:00 +25°C° 0 mm 1 mps 748 mmHg 92%
05:00 +26°C° 0 mm 1 mps 748 mmHg 92%
06:00 +26°C° 0 mm 1 mps 749 mmHg 92%
07:00 +26°C° 0 mm 1 mps 749 mmHg 92%
08:00 +27°C° 0 mm 1 mps 749 mmHg 87%
09:00 +28°C° 0 mm 1 mps 750 mmHg 82%
10:00 +30°C° 0 mm 1 mps 750 mmHg 77%
11:00 +30°C° 0.1 mm 1 mps 749 mmHg 74%
12:00 +31°C° 0.1 mm 2 mps 749 mmHg 70%
13:00 +32°C° 0.1 mm 2 mps 748 mmHg 67%
14:00 +33°C° 3.1 mm 3 mps 748 mmHg 71%
15:00 +31°C° 3.1 mm 3 mps 748 mmHg 76%
16:00 +30°C° 3.1 mm 4 mps 747 mmHg 81%
17:00 +29°C° 1.7 mm 3 mps 747 mmHg 84%
18:00 +28°C° 1.7 mm 2 mps 748 mmHg 87%
19:00 +27°C° 1.7 mm 2 mps 748 mmHg 90%
20:00 +27°C° 0.2 mm 2 mps 748 mmHg 91%
21:00 +27°C° 0.2 mm 1 mps 749 mmHg 91%
22:00 +26°C° 0.2 mm 1 mps 750 mmHg 92%
23:00 +26°C° 0 mm 1 mps 749 mmHg 93%

9 August, Sunday

Time Temperature Precipitation Wind Pressure Humidity
00:00 +26°C° 0 mm 1 mps 749 mmHg 93%
01:00 +26°C° 0 mm 1 mps 749 mmHg 94%
02:00 +26°C° 0 mm 1 mps 748 mmHg 94%
03:00 +26°C° 0 mm 1 mps 748 mmHg 94%
04:00 +25°C° 0 mm 1 mps 748 mmHg 94%
05:00 +26°C° 0 mm 1 mps 748 mmHg 94%
06:00 +26°C° 0 mm 1 mps 748 mmHg 93%
07:00 +26°C° 0 mm 1 mps 749 mmHg 92%
08:00 +27°C° 0.4 mm 1 mps 749 mmHg 87%
09:00 +29°C° 0.4 mm 1 mps 749 mmHg 82%
10:00 +30°C° 0.4 mm 1 mps 750 mmHg 77%
11:00 +30°C° 1.6 mm 2 mps 749 mmHg 76%
12:00 +31°C° 1.6 mm 2 mps 749 mmHg 74%
13:00 +31°C° 1.6 mm 3 mps 748 mmHg 73%
14:00 +31°C° 1.2 mm 3 mps 748 mmHg 76%
15:00 +30°C° 1.2 mm 3 mps 747 mmHg 80%
16:00 +29°C° 1.2 mm 4 mps 746 mmHg 84%
17:00 +28°C° 1.1 mm 3 mps 747 mmHg 86%
18:00 +28°C° 1.1 mm 3 mps 747 mmHg 89%
19:00 +27°C° 1.1 mm 2 mps 747 mmHg 91%
20:00 +27°C° 0.1 mm 2 mps 748 mmHg 91%
21:00 +26°C° 0.1 mm 2 mps 748 mmHg 92%
22:00 +26°C° 0.1 mm 2 mps 749 mmHg 93%
23:00 +26°C° 0 mm 2 mps 748 mmHg 93%

10 August, Monday

Time Temperature Precipitation Wind Pressure Humidity
00:00 +26°C° 0 mm 2 mps 748 mmHg 94%
01:00 +26°C° 0 mm 2 mps 748 mmHg 94%
02:00 +26°C° 0 mm 1 mps 747 mmHg 95%
03:00 +25°C° 0 mm 1 mps 747 mmHg 95%
04:00 +25°C° 0 mm 1 mps 747 mmHg 95%
05:00 +26°C° 0.2 mm 1 mps 747 mmHg 94%
06:00 +26°C° 0.2 mm 1 mps 747 mmHg 94%
07:00 +26°C° 0.2 mm 1 mps 748 mmHg 94%
08:00 +27°C° 1 mm 2 mps 748 mmHg 90%
09:00 +28°C° 1 mm 3 mps 748 mmHg 86%
10:00 +29°C° 1 mm 3 mps 749 mmHg 82%
11:00 +29°C° 2 mm 4 mps 748 mmHg 83%
12:00 +29°C° 2 mm 4 mps 748 mmHg 83%
13:00 +30°C° 2 mm 5 mps 747 mmHg 83%
14:00 +29°C° 2.3 mm 4 mps 747 mmHg 85%
15:00 +29°C° 2.3 mm 4 mps 746 mmHg 86%
16:00 +28°C° 2.3 mm 4 mps 746 mmHg 88%
17:00 +28°C° 1.8 mm 3 mps 746 mmHg 89%
18:00 +27°C° 1.8 mm 3 mps 746 mmHg 91%
19:00 +26°C° 1.8 mm 2 mps 747 mmHg 93%
20:00 +26°C° 0.2 mm 2 mps 747 mmHg 93%
21:00 +26°C° 0.2 mm 2 mps 747 mmHg 93%
22:00 +26°C° 0.2 mm 2 mps 748 mmHg 94%
23:00 +26°C° 0.1 mm 2 mps 747 mmHg 94%

11 August, Tuesday

Time Temperature Precipitation Wind Pressure Humidity
00:00 +26°C° 0.1 mm 2 mps 747 mmHg 94%
01:00 +26°C° 0.1 mm 2 mps 747 mmHg 95%
02:00 +26°C° 0.3 mm 2 mps 747 mmHg 95%
03:00 +26°C° 0.3 mm 2 mps 746 mmHg 95%
04:00 +26°C° 0.3 mm 2 mps 746 mmHg 95%
05:00 +26°C° 0.2 mm 2 mps 746 mmHg 95%
06:00 +26°C° 0.2 mm 2 mps 746 mmHg 95%
07:00 +26°C° 0.2 mm 2 mps 747 mmHg 95%
08:00 +27°C° 0.4 mm 3 mps 747 mmHg 91%
09:00 +28°C° 0.4 mm 3 mps 747 mmHg 88%
10:00 +29°C° 0.4 mm 4 mps 748 mmHg 85%
11:00 +29°C° 1.7 mm 4 mps 747 mmHg 85%
12:00 +29°C° 1.7 mm 5 mps 747 mmHg 84%
13:00 +30°C° 1.7 mm 5 mps 747 mmHg 84%
14:00 +29°C° 2.2 mm 5 mps 746 mmHg 85%
15:00 +28°C° 2.2 mm 4 mps 746 mmHg 87%
16:00 +28°C° 2.2 mm 4 mps 745 mmHg 89%
17:00 +27°C° 1.1 mm 3 mps 746 mmHg 90%
18:00 +27°C° 1.1 mm 3 mps 746 mmHg 92%
19:00 +26°C° 1.1 mm 2 mps 746 mmHg 94%
20:00 +26°C° 0.3 mm 2 mps 747 mmHg 94%
21:00 +26°C° 0.3 mm 2 mps 747 mmHg 94%
22:00 +26°C° 0.3 mm 2 mps 748 mmHg 94%
23:00 +26°C° 0.2 mm 2 mps 747 mmHg 95%
Show more